This demonstration page uses our WeatherBlox Daily Observations layout. Learn more.

Left ArrowRight Arrow

38.83388, -104.82136

Hourly Observations for June 29, 2022

Temp ( °F °C ) Dew Point ( °F °C ) Humidity (%) Winds ( mph kmh ) Pressure ( in mb ) Visibility ( mi km ) Precip ( " mm )
12:54 am 00:54 Clear 66 18.9 38 3.3 36 36 ENE 14 22 30.04 1017 10 16 0.00 0.00
1:54 am 01:54 Mostly Clear 60 15.6 41 5 50 50 ENE 8 13 30.04 1017 10 16 0.00 0.00
2:54 am 02:54 Mostly Clear 58 14.4 43 6.1 58 58 NNE 5 7 30.04 1017 10 16 0.00 0.00
3:54 am 03:54 Mostly Clear 56 13.3 43 6.1 62 62 NNE 10 17 30.03 1017 10 16 0.00 0.00
4:54 am 04:54 Mostly Clear 56 13.3 43 6.1 62 62 NNE 7 11 30.04 1017 10 16 0.00 0.00
5:54 am 05:54 Mostly Sunny 55 12.8 43 6.1 64 64 NNE 7 11 30.06 1018 10 16 0.00 0.00
6:54 am 06:54 Mostly Sunny 63 17.2 45 7.2 52 52 N 6 9 30.03 1017 10 16 0.00 0.00
7:54 am 07:54 Mostly Sunny 71 21.7 43 6.1 36 36 Calm 30.03 1017 10 16 0.00 0.00
8:54 am 08:54 Partly Cloudy 76 24.4 41 5 29 29 ENE 3 6 30.02 1017 10 16 0.00 0.00
9:54 am 09:54 Partly Cloudy 80 26.7 41 5 25 25 SE 7 11 30.00 1016 10 16 0.00 0.00
10:54 am 10:54 Partly Cloudy 83 28.3 44 6.7 25 25 SSE 9 15 29.99 1016 10 16 0.00 0.00
11:54 am 11:54 Partly Cloudy 86 30 39 3.9 19 19 SSE 10 17 29.98 1015 10 16 0.00 0.00
12:54 pm 12:54 Partly Cloudy 89 31.7 38 3.3 16 16 SSW 13 20 29.94 1014 10 16 0.00 0.00
1:39 pm 13:39 Partly Cloudy 91 32.8 39 3.9 16 16 S 20 31 29.57 1001 10 16 0.00 0.00
1:54 pm 13:54 Mostly Cloudy 91 32.8 39 3.9 16 16 SSW 10 17 29.93 1013 10 16 0.00 0.00
2:54 pm 14:54 Mostly Cloudy 91 32.8 39 3.9 16 16 SSE 8 13 29.91 1013 10 16 0.00 0.00
3:54 pm 15:54 Mostly Cloudy 88 31.1 37 2.8 16 16 VRB 7 11 29.91 1013 10 16 0.00 0.00
4:54 pm 16:54 Mostly Cloudy 88 31.1 38 3.3 17 17 SSW 10 17 29.90 1013 10 16 0.00 0.00
5:54 pm 17:54 Mostly Cloudy 87 30.6 37 2.8 17 17 S 3 6 29.90 1012 10 16 0.00 0.00
6:54 pm 18:54 Mostly Cloudy 87 30.6 35 1.7 16 16 Calm 29.87 1012 10 16 0.00 0.00
7:07 pm 19:07 Mostly Cloudy with Nearby Thunderstorms 86 30 39 3.9 19 19 ENE 3 6 29.57 1001 10 16 0.00 0.00
7:15 pm 19:15 Mostly Cloudy with Thunderstorms 86 30 40 4.4 20 20 NE 6 9 29.57 1001 10 16 0.00 0.00
7:39 pm 19:39 Mostly Cloudy with Thunderstorms 83 28.3 40 4.4 22 22 NW 18 30 29.63 1003 10 16 0.00 0.00
7:54 pm 19:54 Windy with Storms Likely 81 27.2 40 4.4 23 23 SSW 20 31 29.92 1013 10 16 0.00 0.00
8:03 pm 20:03 Mostly Cloudy with Nearby Thunderstorms 83 28.3 38 3.3 20 20 VRB 6 9 29.65 1004 10 16 0.00 0.00
8:18 pm 20:18 Mostly Cloudy 82 27.8 39 3.9 22 22 NNE 12 19 29.65 1004 10 16 0.00 0.00
8:54 pm 20:54 Mostly Cloudy 79 26.1 41 5 26 26 NNE 18 30 29.89 1012 10 16 0.00 0.00
9:14 pm 21:14 Mostly Cloudy with Nearby Thunderstorms 77 25 43 6.1 30 30 NNE 16 26 29.72 1006 10 16 0.00 0.00
9:36 pm 21:36 Mostly Cloudy with Nearby Thunderstorms 78 25.6 43 6.1 29 29 NNW 17 28 29.74 1007 10 16 0.00 0.00
9:54 pm 21:54 Mostly Cloudy with Nearby Thunderstorms 78 25.6 43 6.1 29 29 NNW 20 31 29.93 1014 10 16 0.00 0.00
10:05 pm 22:05 Mostly Cloudy with Light Rain 77 25 44 6.7 31 31 NNW 18 30 29.76 1008 10 16 0.00 0.00
10:54 pm 22:54 Mostly Cloudy 74 23.3 46 7.8 37 37 NNW 16 26 29.93 1014 10 16 0.00 0.00
11:54 pm 23:54 Mostly Cloudy 70 21.1 49 9.4 47 47 NNW 17 28 29.94 1014 10 16 0.00 0.00

Powered by AerisWeather